Regional Weather Roundup
Issued by NWS

Home | Current Version | Previous Version | Graphics & Text | Print | Product List | Glossary On
Versions: 1 2 3 4 5 6 7 8 9 10 11 12 13 14 15 16 17 18 19 20 21 22 23 24 25 26 27 28 29 30 31 32 33 34 35 36 37 38 39 40 41 42 43 44 45 46 47 48 49 50
974
ASUS43 KIND 051959
RWRIN

WEATHER ROUNDUP FOR INDIANA
NATIONAL WEATHER SERVICE INDIANAPOLIS IN
400 PM EDT THU MAY 05 2016

NOTE: "FAIR" INDICATES FEW OR NO CLOUDS BELOW 12,000 FEET WITH NO
SIGNIFICANT WEATHER AND/OR OBSTRUCTIONS TO VISIBILITY.

* - STATION DOES NOT REPORT WEATHER SUCH AS PRECIPITATION OR FOG.

+ - STATION NOT QUALITY CONTROLLED BY THE NATIONAL WEATHER SERVICE.
    USE DATA WITH CAUTION...ESPECIALLY DEWPOINT AND RELATIVE
    HUMIDITY OBSERVATIONS.

INZ001>003-010>013-019-020-052100-
NORTHWEST INDIANA

CITY           SKY/WX    TMP DP  RH WIND       PRES   REMARKS
GARY /AIRPORT/   N/A    N/A N/A N/A MISG        N/A
RENSSELAER +   SUNNY     61  43  51 N14G23    29.96F

$$

LMZ046-743>745-052100-
SOUTHERN LAKE MICHIGAN

STATION/POSITION TIME  TEMP    WIND        PRES    WAVE
                       AIR SEA DIR/SP/G            HT
                 (UTC) (F)     (DEG/KT/KT) (MB)    (FT)
BURNS HARBOR     1917   42     360/  9/ 14 1017.3R
MICHIGAN CITY    1900   43     330/ 11/ 13   N/A

$$

INZ004-005-014>016-021>024-052100-
NORTH CENTRAL INDIANA

CITY           SKY/WX    TMP DP  RH WIND       PRES   REMARKS
ELKHART        MOSUNNY   63  52  67 NW1G17    29.94S
GOSHEN         PTSUNNY   64  46  52 N13       29.91S
SOUTH BEND     SUNNY     56  46  69 NW14      29.97R

$$

INZ006>009-017-018-025>027-052100-
NORTHEAST INDIANA

CITY           SKY/WX    TMP DP  RH WIND       PRES   REMARKS
ANGOLA *+        N/A     64  41  42 N14       29.88F
FORT WAYNE     PTSUNNY   62  42  47 N18G25    29.88S

$$

INZ028-029-035-036-043>045-051>053-052100-
WEST CENTRAL INDIANA

CITY           SKY/WX    TMP DP  RH WIND       PRES   REMARKS
CRAWFORDSVL +  PTSUNNY   58  47  67 NE7       29.95S
GREENCASTLE +  PTSUNNY   55  48  76 N13       29.95F
LAFAYETTE      MOSUNNY   63  45  51 N14G22    29.94S
TERRE HAUTE    MOSUNNY   63  45  51 N13G20    29.94S

$$

INZ030>032-037>040-046>048-054>057-064-065-052100-
CENTRAL INDIANA

CITY           SKY/WX    TMP DP  RH WIND       PRES   REMARKS
ANDERSON       PTSUNNY   59  46  63 NW12G23   29.89F
COLUMBUS       PTSUNNY   57  50  77 NW13      29.91S
INDIANAPOLIS   PTSUNNY   60  46  59 NW13      29.91S
-EAGLE CREEK   MOSUNNY   60  47  61 NW10      29.91F
KOKOMO *+      PTSUNNY   64  46  52 N13G18    29.90S
SHELBYVILLE    MOSUNNY   63  46  54 N16G29    29.88S

$$

INZ033-034-041-042-049-050-058-059-052100-
EAST CENTRAL INDIANA

CITY           SKY/WX    TMP DP  RH WIND       PRES   REMARKS
MUNCIE         CLOUDY    62  44  51 N15       29.88S

$$

INZ060-061-067>069-081>083-085>088-052100-
SOUTHWEST INDIANA

CITY           SKY/WX    TMP DP  RH WIND       PRES   REMARKS
EVANSVILLE     CLOUDY    58  44  60 N10G22    29.96S
HUNTINGBURG *+ CLOUDY    55  45  67 NW9       29.94S

$$

INZ062-063-066-070>080-084-089>092-052100-
SOUTH CENTRAL AND SOUTHEAST INDIANA

CITY           SKY/WX    TMP DP  RH WIND       PRES   REMARKS
BLOOMINGTON    PTSUNNY   57  44  62 N12G21    29.94R
MADISON *+     CLOUDY    52  45  76 NW7       29.91F
SEYMOUR +      CLOUDY    57  46  67 NW10      29.91S

$$





USA.gov is the U.S. government's official web portal to all federal, state and local government web resources and services.